UPSVAC Airport Information Service

Manchester Boston Regional Airport

ICAO: KMHT Country: United States
Latitude: 42.9328 Longitude: -71.4357
Latest Arrival : UPSJUMP (KPHL-KMHT) Latest Departure : UPSJUMP (KMHT-KRFD)


WX CaptureLIVE
Data provided by noaa.gov | Fetched at 16:58:12

METAR : KMHT 191553Z 02005KT 10SM SCT042 SCT250 22/09 A3016 RMK AO2 SLP222 T02220094 $

TAF : KMHT 191120Z 1912/2012 36005KT P6SM BKN050 FM191300 36010KT P6SM SKC


Runway Data for KMHT
Data provided by openaviationdata.com

Runway ID Mag Var Hdg Length Elevation Surface ILS Freq ILS Id ILS Slope
6 -15 58° 6846 ft 223 ft Asphalt 109.95 IMJE 3
17 -15 172° 9250 ft 223 ft Asphalt 109.1 IMNA 3
24 -15 238° 6846 ft 223 ft Asphalt -- -- --
35 -15 352° 9250 ft 223 ft Asphalt 109.1 IMHT 3

Manchester Boston Regional Airport, United States
Use only for reference purposes



Not for navigational purposes.